Location: *
(29.1167°S, 130.0000°E)
Time: 22:16:22
(UTC+00:00)

Envisat - Pass Details

Date: 21 July 2019
Orbit: 764 x 766 km, 98.1° (Epoch: 25 August)

Event Time Altitude Azimuth Distance (km) Brightness Sun altitude
Exits shadow 10:09:02 20° 154° (SSE) 1,755 4.5 -18.8°
Maximum altitude 10:12:35 59° 79° (E) 892 3.0 -19.5°
Drops below altitude 10° 10:17:35 10° 0° (N) 2,299 5.6 -20.6°
Sets 10:19:54 0° 356° (N) 3,218 6.4 -21.1°
